Wind_Speed
42 40 40 36 30 26 29 31 32 33 34 35 36 36 36 37 37 35 27 30 20 2 3 5 3 5 10 13 7 6 4 5 2 6 4 4 4 5 5 6 7 7 8 4 4 4 8 5 3 7 4 22 15 12
35 36 34 32 30 31 34 35 36 36 37 39 40 39 37 39 41 40 12 31 24 3 2 12 17 15 10 16 13 10 7 6 7 4 4 3 2 1 5 4 4 4 6 5 9 7 6 5 3 7 7 8 17 9
35 31 29 30 35 29 26 27 29 31 32 33 35 37 37 37 40 44 23 29 23 2 1 3 5 16 19 24 19 7 3 4 5 5 4 4 4 4 4 5 5 4 4 4 2 7 11 12 11 8 8 6 19 15
28 31 34 29 21 20 20 21 21 24 27 31 34 38 37 37 41 44 25 29 28 3 2 4 11 12 11 19 23 13 3 3 3 2 3 3 3 5 4 5 6 6 5 6 8 10 6 12 10 8 11 10 11 13
30 11 9 10 10 11 13 14 14 15 22 29 34 36 37 38 40 41 25 34 28 7 4 2 1 10 15 22 21 18 12 9 2 2 2 3 2 2 1 2 3 2 2 3 4 5 4 8 7 9 8 8 8 10
4 3 4 5 7 8 3 4 4 8 8 21 31 38 38 39 43 26 3 28 36 28 1 1 3 4 15 19 17 17 13 6 4 4 3 3 2 5 3 3 4 5 5 4 5 13 12 14 5 11 5 7 6 7
7 5 5 6 7 6 7 7 4 6 16 19 27 34 40 46 38 6 5 12 37 28 2 3 3 0 3 5 4 3 3 2 2 3 2 1 3 4 3 3 4 6 9 7 8 10 4 8 7 13 13 11 8 10
7 9 10 13 14 14 15 15 19 20 23 27 32 39 42 39 23 3 3 37 36 9 3 3 2 3 0 3 4 2 3 3 2 3 2 2 3 1 3 7 9 10 12 5 10 8 7 9 10 14 13 12 14 13
11 14 15 18 23 28 28 36 37 40 42 43 42 44 24 6 2 5 31 33 18 6 3 2 3 3 4 2 3 2 2 1 1 4 4 4 3 5 6 9 10 11 9 12 13 6 9 9 10 12 12 13 11 11
17 21 22 26 29 30 34 34 30 28 28 29 19 5 3 1 34 29 7 3 2 3 2 1 1 2 2 1 2 3 2 3 3 3 3 3 3 7 8 8 8 10 10 9 6 5 9 9 9 12 12 11 11 10
25 25 24 25 25 22 18 12 8 6 7 3 2 3 22 27 5 1 3 3 3 4 1 1 2 3 3 3 3 2 3 2 3 2 3 2 2 4 8 9 10 9 9 10 7 7 8 8 8 9 12 12 12 14
21 18 18 16 15 12 12 14 8 9 7 6 12 7 5 2 2 5 2 1 4 3 2 2 1 2 2 2 2 1 3 1 3 3 4 2 3 8 7 9 9 9 9 10 11 12 12 13 12 12 12 13 18 21
23 22 14 7 7 5 9 11 13 11 4 4 5 4 4 4 10 5 3 3 2 2 3 2 2 2 2 2 2 2 2 2 3 4 3 2 5 6 6 7 10 12 14 12 14 16 19 21 22 20 16 19 22 23
24 19 18 14 9 7 4 6 8 8 10 5 5 7 4 5 4 2 2 2 2 1 3 1 2 2 1 1 1 4 3 4 4 3 2 2 6 6 8 8 10 11 12 13 13 18 20 21 23 25 25 23 24 25
26 28 18 15 16 11 12 14 13 12 7 5 5 6 5 3 2 3 3 2 3 3 2 1 2 3 4 4 4 4 4 4 3 2 2 4 6 7 8 10 10 10 10 12 16 15 20 24 24 24 26 26 26 26
7 11 23 14 6 6 8 15 21 7 4 4 7 4 4 2 5 4 4 4 3 5 1 2 3 3 4 3 5 4 3 2 1 3 4 7 9 9 10 10 10 13 14 15 17 20 22 20 19 21 24 25 25 26
8 6 13 22 19 10 9 7 8 6 4 5 3 4 2 1 2 4 4 6 4 2 3 3 5 6 2 4 4 4 2 4 6 6 6 9 9 9 9 12 14 15 15 17 20 20 19 19 21 22 20 21 25 26
4 2 7 4 3 10 9 9 4 5 6 3 3 5 3 3 5 3 5 5 3 2 2 4 3 6 4 3 3 4 5 7 7 7 7 8 10 13 14 12 15 17 18 18 18 19 19 18 17 15 18 18 21 20
8 7 11 13 9 5 3 5 6 4 4 1 2 4 2 2 7 5 4 5 5 5 4 3 5 3 3 4 9 7 7 6 7 8 8 14 15 14 15 17 19 19 20 19 19 17 17 18 15 15 16 17 17 16
12 14 4 6 6 4 4 3 6 5 3 1 1 7 5 4 5 8 9 8 5 3 6 5 4 3 5 6 6 7 6 6 7 8 7 7 13 17 17 14 14 14 16 16 18 16 16 19 21 19 19 19 19 17
5 6 7 5 4 8 4 3 4 3 4 3 3 2 5 8 11 9 8 7 7 4 5 5 6 7 14 15 14 14 11 10 6 5 6 6 12 14 14 15 16 16 14 13 12 13 16 14 15 17 19 20 19 18
5 6 4 8 5 5 5 7 5 4 3 4 2 2 3 3 4 6 4 7 4 5 4 5 6 7 9 9 14 17 17 20 19 18 17 14 5 8 10 12 13 12 14 15 17 16 14 11 13 15 16 16 15 15
2 4 5 7 6 5 2 0 4 2 4 2 2 3 3 3 2 2 3 4 3 7 11 11 16 19 16 18 20 20 17 17 14 14 15 15 17 17 16 15 14 14 11 10 12 14 14 11 11 12 12 12 12 13
5 5 4 4 5 2 2 5 3 3 4 3 3 3 3 1 2 4 4 2 3 8 6 9 10 7 11 15 8 12 13 17 17 17 13 14 12 11 14 13 13 12 12 11 11 12 11 11 10 11 10 10 9 9
6 8 5 6 4 6 5 4 4 4 4 3 3 3 2 2 3 3 2 1 2 2 3 9 11 9 4 2 8 11 10 13 12 11 11 13 16 14 13 13 12 9 7 9 10 9 8 8 8 8 8 7 7 7
7 5 5 3 3 4 1 4 3 3 3 4 3 2 3 3 4 2 1 2 1 1 1 4 5 3 4 7 4 8 9 10 14 13 7 4 6 10 10 7 5 6 6 4 5 6 6 6 5 4 4 4 3 3
5 5 3 4 2 4 4 4 3 4 4 2 1 3 3 4 2 2 2 1 2 4 8 10 13 12 9 11 12 10 8 8 11 16 14 12 10 7 5 8 8 5 6 5 4 4 2 1 1 2 3 2 1 2
2 4 5 5 5 4 5 3 3 2 1 2 3 4 4 5 3 2 2 11 19 18 18 17 18 18 17 15 14 15 15 16 17 16 15 12 10 8 7 6 5 3 1 1 2 4 4 4 4 4 4 5 3 5
4 2 4 6 5 6 6 3 2 2 3 2 4 2 2 2 1 4 11 18 19 20 21 19 16 14 13 10 8 7 13 12 11 3 2 1 1 2 2 2 2 2 3 3 2 3 3 1 4 4 5 5 6 7
3 2 4 4 5 5 3 1 1 3 2 3 3 6 4 5 10 15 17 14 14 15 15 15 14 11 12 11 12 10 6 6 10 8 4 4 5 5 2 2 3 4 4 3 4 6 4 6 5 4 5 6 6 6
2 3 5 4 4 1 3 1 12 13 4 5 5 4 3 2 8 11 9 11 12 12 14 12 7 7 5 5 3 4 3 3 3 4 4 4 3 3 4 7 7 5 5 6 6 7 7 6 6 6 6 7 8 10
4 4 4 5 2 2 1 2 2 3 3 3 3 2 4 3 2 4 5 8 10 9 9 10 9 6 4 3 3 3 4 5 4 2 1 1 2 4 6 5 4 5 6 7 6 5 5 5 6 8 9 10 11 11
4 4 4 4 3 1 3 4 4 2 4 3 2 1 1 3 3 2 2 0 4 7 8 6 5 6 6 6 6 6 6 5 5 3 3 3 5 5 3 3 3 4 5 5 5 6 7 9 9 8 8 10 11 11
Wind_Direction
285 282 283 287 282 273 264 261 259 255 249 244 241 236 232 229 220 203 210 200 197 187 183 182 209 200 186 191 175 157 141 196 167 190 193 204 207 225 194 173 166 170 176 199 202 222 274 225 93 142 181 290 287 294
282 280 285 284 281 274 267 263 261 257 250 245 239 236 233 225 217 202 207 194 194 175 232 214 210 224 263 215 193 177 185 166 185 165 189 143 243 13 176 219 195 211 184 186 195 209 219 229 258 218 189 236 281 275
284 286 285 281 284 277 265 259 257 253 247 238 232 229 224 216 211 199 191 168 180 179 230 280 194 219 219 238 220 192 241 183 183 177 161 191 222 140 189 235 212 253 168 227 120 251 262 272 241 231 202 174 276 276
291 284 280 282 273 272 269 263 258 254 246 237 227 222 219 212 208 199 182 177 173 127 242 261 232 250 225 218 223 225 253 178 112 131 155 151 175 178 221 214 190 218 162 226 259 284 299 280 248 243 227 232 249 279
293 292 271 277 280 286 278 269 263 258 249 230 219 210 205 203 199 191 185 176 178 160 196 220 256 247 226 215 210 212 260 251 208 174 151 208 186 80 216 325 188 25 175 216 239 36 283 271 328 313 226 242 241 253
319 350 329 317 318 316 270 231 273 301 227 207 202 199 194 190 181 158 133 180 186 195 104 210 266 208 195 199 193 195 207 204 193 173 191 248 234 186 179 241 65 48 356 308 299 312 293 275 270 360 9 354 325 338
45 26 40 37 36 66 88 91 76 91 132 134 154 170 170 167 160 150 163 166 177 190 138 238 232 228 103 150 171 146 138 160 155 200 185 172 279 185 144 183 13 356 326 304 334 349 357 1 338 353 4 8 26 40
71 68 69 67 79 83 88 88 87 111 124 138 124 129 145 140 137 114 88 159 154 99 96 263 165 137 67 164 133 135 129 132 200 178 151 169 359 227 81 9 360 356 329 320 350 9 346 323 2 15 16 15 30 30
94 101 95 87 87 89 98 98 92 95 98 105 123 126 119 89 89 85 136 144 141 95 183 248 142 153 175 122 106 79 82 107 137 215 195 151 81 43 7 354 355 346 331 318 322 14 356 11 16 20 28 37 45 38
105 105 100 101 95 94 100 104 84 84 93 97 93 53 83 228 121 114 91 92 77 237 239 227 277 114 103 101 79 110 146 187 186 214 102 73 82 97 23 10 349 342 339 344 340 10 351 2 24 31 37 44 52 50
114 107 108 110 104 101 99 107 111 71 54 68 93 54 113 130 90 107 138 164 159 171 266 17 108 123 352 108 125 159 179 181 137 151 100 81 89 30 25 18 7 360 8 20 31 45 40 41 43 52 51 54 64 65
83 87 87 104 103 89 71 64 81 92 80 94 115 121 138 92 96 102 85 359 44 75 20 56 355 83 56 32 96 169 135 101 89 50 69 63 42 22 18 26 19 21 36 45 45 55 51 54 57 64 63 61 61 66
70 72 88 95 94 87 82 42 34 45 97 88 57 56 35 335 42 48 47 31 57 17 5 4 109 69 46 41 86 91 136 84 81 48 71 50 43 34 32 41 45 43 54 61 62 63 68 67 58 62 67 67 73 72
59 62 65 67 60 42 3 7 17 28 49 55 42 35 60 16 38 31 333 303 313 0 341 302 108 108 114 145 134 95 40 49 68 63 72 59 63 62 60 59 60 50 50 55 58 58 59 59 59 57 60 65 71 67
60 58 64 57 51 56 60 64 61 66 53 51 35 38 37 343 343 316 310 327 357 309 307 152 83 60 26 56 22 82 52 69 60 99 69 74 72 74 70 66 66 62 58 58 61 66 64 63 62 60 60 65 70 72
42 35 35 29 29 34 43 56 49 61 56 59 43 12 337 41 346 343 351 346 342 332 282 11 74 74 48 46 50 26 72 75 123 92 98 87 75 67 65 60 55 61 66 69 68 69 71 70 73 75 68 64 66 69
34 48 60 60 56 61 45 66 48 50 61 38 26 12 351 20 311 326 332 331 313 322 49 43 52 35 64 63 62 25 58 109 104 84 78 80 83 75 66 65 67 70 68 64 64 63 66 72 75 71 67 64 68 68
78 63 42 12 352 37 47 45 75 66 61 14 43 346 349 349 337 335 337 340 354 58 42 57 52 41 36 78 86 96 90 88 87 91 84 77 74 72 73 75 72 72 69 65 64 61 58 60 61 62 72 73 71 67
69 60 94 65 64 74 60 44 65 86 50 77 346 347 9 342 7 353 3 7 44 58 96 65 57 49 58 76 108 106 104 100 102 89 80 73 75 78 76 71 67 64 63 62 61 60 59 58 60 62 68 74 72 70
66 100 73 43 134 92 81 56 84 83 67 158 2 38 47 28 5 33 35 32 48 63 47 49 37 42 84 86 92 99 102 114 112 100 83 69 66 67 61 67 67 72 70 67 63 65 64 61 67 80 87 90 86 81
57 8 48 88 84 75 98 104 62 107 132 96 205 113 66 42 39 34 38 14 47 39 59 54 71 69 70 72 79 86 72 79 76 92 107 94 78 79 72 67 73 71 71 64 67 60 64 62 83 86 88 91 95 95
10 11 47 35 71 57 62 26 102 129 95 138 151 69 52 26 11 19 17 32 52 26 30 56 65 73 71 67 73 77 86 84 82 81 82 85 76 70 61 76 79 73 71 78 87 84 81 93 102 105 106 107 104 99
22 35 48 33 68 66 107 146 83 99 97 92 55 60 43 34 11 13 67 39 58 34 51 59 67 71 75 73 74 67 75 89 81 81 83 83 83 90 87 82 94 98 88 86 100 95 90 92 108 115 115 115 111 108
43 51 42 57 61 94 26 28 48 59 51 49 62 71 41 89 45 54 61 47 62 57 51 53 70 74 59 54 56 60 74 95 93 88 101 100 89 73 85 88 89 97 107 108 104 111 94 92 104 110 109 113 117 125
65 349 60 20 6 67 55 33 24 55 64 43 80 41 21 53 65 57 68 7 16 30 39 75 73 73 89 75 59 66 96 114 104 90 84 114 116 108 93 92 87 88 115 113 107 115 122 114 103 96 95 99 114 121
71 360 53 41 355 76 45 71 60 93 75 45 50 50 47 68 69 102 157 175 136 138 172 139 127 95 62 76 89 75 83 111 117 92 75 146 159 143 146 140 110 77 84 95 126 122 121 128 127 110 95 81 75 63
77 40 53 33 19 76 66 45 45 75 71 101 90 64 81 80 143 168 126 90 118 115 136 141 133 113 114 100 102 104 117 126 110 108 102 95 95 101 118 129 117 100 87 84 85 69 62 93 73 16 354 310 301 324
109 53 76 328 60 31 101 72 61 71 61 20 72 55 114 156 155 154 135 132 130 127 119 116 118 119 115 111 114 114 111 115 116 111 101 92 89 84 81 83 77 64 50 127 53 35 22 42 17 337 325 330 313 307
44 360 76 37 44 42 39 60 49 13 347 79 108 115 106 67 78 107 122 136 138 129 118 114 110 116 112 111 113 150 158 158 150 80 78 243 211 122 79 43 11 352 331 301 299 322 314 284 329 329 327 309 296 297
12 54 87 59 58 48 349 77 12 305 8 88 92 102 71 40 67 123 131 136 136 136 138 136 138 135 128 119 109 97 117 202 242 261 185 203 214 185 215 286 303 310 309 309 311 321 283 274 281 294 313 319 319 322
80 65 72 57 74 327 189 233 70 61 42 48 38 77 83 107 67 66 128 131 135 140 149 158 173 188 174 165 147 147 117 85 79 75 85 110 145 215 288 302 305 302 292 292 303 314 308 303 302 305 304 303 303 308
35 71 115 102 133 266 40 62 86 82 15 51 2 30 20 51 50 356 42 146 151 153 159 163 149 152 148 132 123 111 100 116 102 91 62 354 305 316 319 314 305 298 299 304 312 320 321 320 316 312 309 308 310 312
55 57 63 89 61 34 289 87 36 62 31 44 10 145 123 133 157 219 44 100 217 208 176 153 126 115 110 100 100 100 88 78 89 77 46 36 1 354 357 353 345 338 335 337 337 329 326 324 320 317 317 319 321 321
Height
639 635 631 628 626 624 625 626 628 630 633 637 642 647 653 659 667 675 681 684 690 692 694 694 695 695 699 704 715 719 728 729 732 741 740 741 751 729 723 722 728 732 737 739 730 731 722 685 689 689 692 690 685 674
626 622 620 617 615 614 613 614 615 617 619 624 629 635 641 648 657 669 674 679 686 689 690 688 690 690 694 694 698 705 703 708 710 724 730 733 740 746 722 724 714 724 717 727 717 708 686 683 676 678 678 681 676 675
615 612 609 607 604 602 601 601 602 603 605 610 615 622 630 638 647 657 665 671 684 684 687 688 685 685 689 693 695 699 701 698 702 702 717 719 724 724 729 727 707 704 700 706 704 682 680 676 675 675 672 671 673 667
605 602 599 596 594 593 591 591 591 591 592 596 602 610 619 629 639 650 655 665 675 683 686 683 679 681 680 685 688 691 694 693 695 700 706 712 721 706 720 702 710 700 697 696 691 683 681 673 671 667 666 665 668 662
595 592 591 590 588 586 583 582 581 580 579 582 589 599 609 621 634 646 655 659 668 673 679 681 675 670 674 678 683 686 692 693 695 700 711 710 703 702 706 705 705 704 703 705 700 693 694 679 674 669 662 663 661 660
592 591 589 587 585 581 579 578 576 571 567 569 577 590 603 616 631 641 653 658 664 668 675 683 670 666 667 671 675 680 687 690 692 696 704 700 693 697 704 707 704 706 708 707 702 696 691 685 677 675 667 668 661 660
592 591 589 587 584 581 579 578 575 571 571 573 579 589 600 613 625 635 640 643 657 670 674 674 665 662 662 666 672 678 681 684 687 690 696 698 695 694 704 703 712 712 711 705 705 691 685 687 685 680 675 671 670 667
595 594 593 591 588 585 584 581 578 576 578 582 586 592 608 619 633 639 639 642 656 668 673 663 660 661 665 665 669 676 682 686 690 690 690 693 696 696 710 719 718 717 713 705 703 698 699 698 693 689 684 680 677 676
598 597 597 597 595 591 590 590 590 589 591 593 602 612 620 627 633 639 643 653 659 667 669 666 658 657 662 665 670 678 682 687 686 691 685 688 705 714 728 727 725 723 720 713 705 697 702 700 699 698 696 695 694 694
603 603 604 604 603 602 600 601 602 602 604 608 612 619 631 633 637 645 655 663 670 668 664 661 663 658 660 667 675 679 688 683 683 680 683 702 722 731 733 733 731 726 720 715 706 705 709 704 704 706 706 703 701 702
608 610 610 611 611 611 612 611 611 611 612 614 619 627 633 637 640 647 651 655 658 664 661 659 661 659 664 667 671 680 683 685 682 676 689 709 724 731 734 733 732 729 725 721 719 719 718 715 712 711 711 711 709 710
616 616 615 616 616 616 616 614 613 614 616 618 619 628 634 640 643 647 658 659 652 655 662 666 665 663 665 664 666 672 677 676 677 692 704 725 733 736 737 737 737 735 730 727 726 722 721 719 722 717 718 717 719 717
624 623 622 622 622 621 620 618 617 618 619 621 625 635 642 657 666 667 651 657 660 665 669 665 663 666 668 670 670 669 669 675 690 710 729 738 741 742 743 742 742 740 739 737 734 734 734 730 728 725 728 730 729 729
629 627 626 626 625 625 623 622 621 618 619 635 645 667 674 686 686 685 680 679 675 674 671 670 667 667 672 669 668 674 692 694 714 737 744 746 748 749 749 748 747 747 745 744 743 740 738 736 735 739 739 740 740 739
635 634 632 630 630 628 627 625 624 624 639 657 667 690 691 691 688 686 683 678 677 674 671 666 667 672 682 680 693 695 706 730 733 748 751 752 753 753 753 752 752 752 751 750 751 749 745 744 746 749 750 750 750 750
639 637 639 636 633 631 631 630 631 639 662 678 692 699 701 699 695 690 685 682 680 677 672 672 671 681 697 699 713 723 727 745 751 752 756 758 759 760 760 759 758 758 758 759 758 756 757 759 761 763 763 762 760 760
642 645 646 642 638 636 634 637 648 668 687 698 708 709 710 710 706 701 693 688 685 678 676 684 693 699 700 713 730 739 747 751 753 758 760 762 763 765 765 766 767 767 768 767 766 767 768 770 769 769 769 772 770 770
645 647 646 644 643 641 643 651 669 691 711 718 721 717 714 712 709 704 699 692 684 685 692 700 708 721 729 732 747 751 754 757 760 762 766 769 770 772 773 774 773 773 773 774 775 775 775 775 775 776 777 778 778 780
646 646 647 647 646 649 658 671 681 709 723 725 724 719 717 716 712 706 701 698 696 696 703 714 726 735 740 746 752 757 760 762 766 770 773 775 776 778 779 779 779 779 780 780 781 782 783 783 784 784 784 785 786 788
647 647 647 648 650 655 668 684 689 707 724 728 726 725 723 723 719 713 707 703 701 708 724 739 749 751 752 755 758 761 765 768 769 773 779 782 783 782 783 784 786 787 787 788 789 789 790 790 791 791 790 791 791 793
649 648 648 648 652 658 673 686 698 711 720 726 728 727 731 728 726 724 722 720 720 737 750 759 760 761 762 764 766 768 771 772 775 777 782 786 789 789 790 791 792 793 794 795 796 797 796 797 798 798 796 797 798 799
651 649 650 650 656 666 680 688 697 706 714 721 723 726 735 742 743 741 742 743 756 766 766 768 769 769 771 773 776 777 779 780 782 785 788 790 793 795 797 799 799 800 801 802 802 803 803 803 803 803 803 804 804 803
652 652 655 659 669 683 697 696 701 705 716 722 728 734 744 755 753 750 763 769 776 779 779 778 779 780 781 783 783 785 787 788 791 793 796 798 800 801 803 804 805 805 806 808 808 808 808 808 807 807 807 807 807 808
656 663 670 677 682 701 701 708 704 713 724 733 738 746 754 759 757 769 776 781 785 786 786 787 787 788 790 791 793 795 796 796 798 801 803 803 805 808 808 809 809 810 810 810 810 811 811 811 811 811 811 810 811 811
671 688 687 699 699 704 716 725 728 727 740 745 748 755 760 758 775 789 793 792 792 794 794 793 794 796 799 801 801 801 802 802 803 805 808 807 808 811 812 813 813 813 813 813 813 813 814 814 814 814 813 813 813 812
693 703 703 709 713 711 724 736 740 745 750 752 755 759 766 780 793 797 792 796 796 797 798 798 799 801 802 803 804 805 806 806 806 807 810 811 811 811 812 814 814 815 815 815 815 815 815 815 815 815 814 814 813 812
703 711 713 719 718 720 736 742 742 747 756 759 762 777 783 801 805 794 794 795 796 798 799 800 800 802 805 807 808 808 809 809 809 812 813 813 814 814 814 815 815 817 816 816 816 815 815 815 814 814 814 813 813 812
721 724 735 742 739 741 756 765 770 769 766 759 769 789 797 799 793 793 794 796 797 800 801 803 805 806 808 810 811 811 812 813 814 815 816 817 817 817 817 817 817 817 817 817 816 816 815 815 814 814 813 812 812 811
733 737 738 756 753 756 761 773 773 768 768 773 789 793 789 788 791 793 797 798 800 801 803 806 809 809 810 812 813 813 815 815 815 818 820 821 819 819 818 818 818 818 817 817 817 816 815 815 813 813 812 810 809 809
739 740 751 766 770 776 780 778 779 775 771 772 775 782 789 795 797 798 800 802 803 804 806 808 810 812 813 813 814 815 816 816 816 817 817 818 817 818 818 819 818 818 817 817 816 815 814 813 812 811 810 809 808 807
739 746 756 766 776 784 782 779 777 777 779 785 786 792 798 800 803 805 805 806 807 808 809 811 812 813 814 814 815 816 816 817 816 816 816 817 817 818 818 818 817 816 816 815 814 813 812 811 810 809 808 807 806 805
750 761 765 773 781 781 780 785 789 794 799 799 804 804 804 807 814 808 809 809 810 810 811 812 813 814 815 815 816 816 817 817 817 818 818 818 818 818 817 817 816 815 814 813 812 812 811 810 809 808 807 805 804 803
763 764 772 776 782 786 783 782 790 799 804 807 805 806 808 812 815 810 810 810 810 810 812 813 814 815 816 817 818 818 818 819 819 819 819 819 819 818 817 817 816 815 814 813 812 811 810 809 807 806 805 803 802 800